DW2004 Weather Reports


Display with metric or nautical units.
time (UTC)temp
F
wind
direction
speed
MPH
gust
MPH
rain 1hr
in
rain 24hr
in
rain mn
in
humidity
%
barometer
mb
20260831192003 100 153 2.0 10.0 0.00 0.00 0.00 32 1016.0
20260831191508 100 202 4.0 9.0 0.00 0.00 0.00 33 1016.0
20260831190502 99 207 2.0 11.0 0.00 0.00 0.00 34 1016.0
20260831190011 99 119 1.0 5.0 0.00 0.00 0.00 36 1016.1
20260831185003 99 178 1.0 8.0 0.00 0.00 0.00 34 1016.1
20260831184506 100 221 2.0 8.0 0.00 0.00 0.00 35 1016.2
20260831184003 100 82 0.0 12.0 0.00 0.00 0.00 37 1016.2
20260831183503 99 119 0.0 12.0 0.00 0.00 0.00 38 1016.2
20260831183007 99 192 5.0 10.0 0.00 0.00 0.00 36 1016.3
20260831182503 99 115 1.0 10.0 0.00 0.00 0.00 36 1016.4
20260831182004 99 231 2.0 10.0 0.00 0.00 0.00 38 1016.6
20260831181004 98 142 1.0 9.0 0.00 0.00 0.00 38 1016.9
20260831180504 98 125 2.0 10.0 0.00 0.00 0.00 38 1016.9
20260831180009 98 204 3.0 11.0 0.00 0.00 0.00 38 1017.0
20260831175503 98 107 1.0 9.0 0.00 0.00 0.00 38 1017.0
20260831175003 98 124 3.0 18.0 0.00 0.00 0.00 38 1017.2
20260831174506 98 65 1.0 18.0 0.00 0.00 0.00 39 1017.2
20260831173503 97 194 0.0 5.0 0.00 0.00 0.00 40 1017.3
20260831173006 97 207 1.0 10.0 0.00 0.00 0.00 39 1017.3
20260831172503 96 233 4.0 10.0 0.00 0.00 0.00 40 1017.4
20260831172003 96 188 4.0 10.0 0.00 0.00 0.00 39 1017.5
20260831171506 96 171 1.0 7.0 0.00 0.00 0.00 41 1017.6
20260831171002 96 198 2.0 8.0 0.00 0.00 0.00 40 1017.6
20260831170009 95 113 2.0 9.0 0.00 0.00 0.00 41 1017.5
20260831165503 95 99 3.0 9.0 0.00 0.00 0.00 43 1017.5
20260831165003 94 242 1.0 9.0 0.00 0.00 0.00 43 1017.5
20260831164004 94 174 1.0 7.0 0.00 0.00 0.00 43 1017.6
20260831163504 94 233 1.0 9.0 0.00 0.00 0.00 43 1017.6
20260831163007 93 214 2.0 9.0 0.00 0.00 0.00 43 1017.6
20260831162502 95 171 2.0 8.0 0.00 0.00 0.00 42 1017.7
20260831162002 94 145 1.0 7.0 0.00 0.00 0.00 42 1017.7
20260831161506 94 173 1.0 8.0 0.00 0.00 0.00 43 1017.7
20260831160503 93 249 2.0 8.0 0.00 0.00 0.00 44 1017.8
20260831155502 93 221 0.0 6.0 0.00 0.00 0.00 45 1017.8
20260831155001 93 233 1.0 10.0 0.00 0.00 0.00 46 1017.8
20260831154506 92 192 2.0 10.0 0.00 0.00 0.00 46 1017.8
20260831154002 92 259 0.0 7.0 0.00 0.00 0.00 46 1017.7
20260831153503 92 152 2.0 8.0 0.00 0.00 0.00 46 1017.6
20260831152501 91 210 0.0 7.0 0.00 0.00 0.00 49 1017.5
20260831152002 91 205 0.0 7.0 0.00 0.00 0.00 49 1017.6
20260831151001 90 128 2.0 7.0 0.00 0.00 0.00 49 1017.5
20260831150501 90 179 1.0 5.0 0.00 0.00 0.00 51 1017.4
20260831150007 89 179 1.0 5.0 0.00 0.00 0.00 53 1017.5
20260831145501 89 178 1.0 6.0 0.00 0.00 0.00 54 1017.5
20260831145001 88 178 1.0 6.0 0.00 0.00 0.00 54 1017.5
20260831144001 88 213 1.0 11.0 0.00 0.00 0.00 54 1017.5
20260831143501 87 196 3.0 11.0 0.00 0.00 0.00 55 1017.5
20260831143006 87 221 2.0 9.0 0.00 0.00 0.00 57 1017.5
20260831142501 87 197 2.0 9.0 0.00 0.00 0.00 57 1017.5
20260831142001 87 208 1.0 6.0 0.00 0.00 0.00 57 1017.5
20260831141001 86 184 1.0 12.0 0.00 0.00 0.00 60 1017.6
20260831140501 86 179 4.0 12.0 0.00 0.00 0.00 60 1017.6
20260831140008 86 200 2.0 7.0 0.00 0.00 0.00 61 1017.5
20260831135502 86 193 0.0 8.0 0.00 0.00 0.00 62 1017.4
20260831135001 85 196 3.0 8.0 0.00 0.00 0.00 61 1017.3
20260831134505 85 198 1.0 6.0 0.00 0.00 0.00 62 1017.1
20260831134001 85 221 1.0 6.0 0.00 0.00 0.00 63 1017.1
20260831133501 85 221 0.0 6.0 0.00 0.00 0.00 64 1017.1
20260831133005 85 221 0.0 5.0 0.00 0.00 0.00 64 1017.1
20260831132501 85 221 1.0 4.0 0.00 0.00 0.00 64 1016.9
20260831132002 84 219 0.0 3.0 0.00 0.00 0.00 65 1016.9
20260831131505 84 229 0.0 4.0 0.00 0.00 0.00 66 1016.8
20260831131002 83 229 1.0 4.0 0.00 0.00 0.00 66 1016.7
20260831130501 83 229 0.0 2.0 0.00 0.00 0.00 66 1016.6
20260831130007 83 229 0.0 0.0 0.00 0.00 0.00 67 1016.7
20260831125502 82 229 0.0 1.0 0.00 0.00 0.00 69 1016.5
20260831125001 81 229 0.0 3.0 0.00 0.00 0.00 70 1016.3
20260831124506 81 229 0.0 1.0 0.00 0.00 0.00 70 1016.2
20260831123501 80 229 0.0 1.0 0.00 0.00 0.00 71 1016.1
20260831122002 80 229 0.0 0.0 0.00 0.00 0.00 70 1015.9
20260831121505 80 229 0.0 0.0 0.00 0.00 0.00 70 1015.8
20260831121001 80 229 0.0 0.0 0.00 0.00 0.00 70 1015.8
20260831120501 80 229 0.0 0.0 0.00 0.00 0.00 70 1015.8
20260831115501 80 229 0.0 1.0 0.00 0.00 0.00 69 1015.6
20260831115000 80 229 0.0 2.0 0.00 0.00 0.00 69 1015.6
20260831114503 80 229 0.0 2.0 0.00 0.00 0.00 69 1015.6
20260831114000 80 229 0.0 0.0 0.00 0.00 0.00 68 1015.5
20260831113500 81 229 0.0 0.0 0.00 0.00 0.00 68 1015.5
20260831113004 81 229 0.0 0.0 0.00 0.00 0.00 68 1015.4
20260831112500 81 229 0.0 0.0 0.00 0.00 0.00 67 1015.5
20260831112000 81 229 0.0 0.0 0.00 0.00 0.00 67 1015.4
20260831111504 81 229 0.0 0.0 0.00 0.00 0.00 67 1015.3
20260831111000 81 229 0.0 0.0 0.00 0.00 0.00 67 1015.2
20260831110500 81 229 0.0 1.0 0.00 0.00 0.00 66 1015.1
20260831110007 81 229 0.0 1.0 0.00 0.00 0.00 66 1015.2
20260831104506 81 229 0.0 0.0 0.00 0.00 0.00 66 1015.2
20260831104001 81 229 0.0 0.0 0.00 0.00 0.00 65 1015.1
20260831103502 81 229 0.0 0.0 0.00 0.00 0.00 65 1015.1
20260831103004 82 229 0.0 0.0 0.00 0.00 0.00 65 1015.2
20260831102501 82 229 0.0 0.0 0.00 0.00 0.00 64 1015.2
20260831102001 82 229 0.0 0.0 0.00 0.00 0.00 64 1015.1
20260831100500 83 229 0.0 1.0 0.00 0.00 0.00 62 1015.2
20260831100006 83 229 0.0 2.0 0.00 0.00 0.00 61 1015.0
20260831095503 83 229 0.0 1.0 0.00 0.00 0.00 61 1015.0
20260831095001 83 229 0.0 2.0 0.00 0.00 0.00 61 1014.9
20260831094504 83 229 0.0 2.0 0.00 0.00 0.00 60 1014.8
20260831094000 83 229 0.0 2.0 0.00 0.00 0.00 60 1014.8
20260831093501 84 229 0.0 2.0 0.00 0.00 0.00 59 1014.9
20260831093005 84 229 0.0 2.0 0.00 0.00 0.00 59 1014.8
20260831092501 84 229 0.0 3.0 0.00 0.00 0.00 59 1014.8
20260831092001 84 229 0.0 4.0 0.00 0.00 0.00 58 1014.8
20260831091505 84 229 1.0 4.0 0.00 0.00 0.00 58 1014.8
20260831091002 84 229 0.0 4.0 0.00 0.00 0.00 57 1014.7
20260831090007 85 223 1.0 6.0 0.00 0.00 0.00 57 1014.6
20260831085500 85 221 1.0 6.0 0.00 0.00 0.00 56 1014.7
20260831085000 85 234 0.0 7.0 0.00 0.00 0.00 56 1014.6
20260831084000 85 236 1.0 9.0 0.00 0.00 0.00 55 1014.6
20260831083459 85 236 2.0 9.0 0.00 0.00 0.00 55 1014.7
20260831083003 86 238 1.0 9.0 0.00 0.00 0.00 54 1014.7
20260831082501 86 242 2.0 10.0 0.00 0.00 0.00 54 1014.7
20260831082000 86 227 3.0 10.0 0.00 0.00 0.00 53 1014.7
20260831081504 86 213 1.0 6.0 0.00 0.00 0.00 53 1014.7
20260831080500 86 215 1.0 10.0 0.00 0.00 0.00 52 1014.7
20260831075500 87 215 1.0 8.0 0.00 0.00 0.00 52 1014.6
20260831075000 87 211 3.0 8.0 0.00 0.00 0.00 51 1014.5
20260831074000 87 198 2.0 10.0 0.00 0.00 0.00 51 1014.5
20260831073459 87 240 2.0 9.0 0.00 0.00 0.00 50 1014.4
20260831073003 87 155 3.0 8.0 0.00 0.00 0.00 51 1014.4
20260831072459 87 142 1.0 5.0 0.00 0.00 0.00 51 1014.3
20260831072000 87 128 1.0 5.0 0.00 0.00 0.00 51 1014.4
20260831071502 87 128 1.0 5.0 0.00 0.00 0.00 51 1014.3
20260831071000 86 128 1.0 4.0 0.00 0.00 0.00 52 1014.4
20260831070459 86 128 1.0 4.0 0.00 0.00 0.00 52 1014.4
20260831065459 86 128 0.0 3.0 0.00 0.00 0.00 53 1014.4
20260831064959 86 128 0.0 2.0 0.00 0.00 0.00 53 1014.5
20260831064504 86 128 0.0 0.0 0.00 0.00 0.00 53 1014.5
20260831061502 85 128 0.0 1.0 0.00 0.00 0.00 54 1014.6
20260831060500 85 128 0.0 0.0 0.00 0.00 0.00 54 1014.5
20260831060011 85 128 0.0 0.0 0.00 0.00 0.00 54 1014.5
20260831055506 85 128 0.0 0.0 0.00 0.00 0.00 54 1014.5
20260831054005 85 128 0.0 0.0 0.00 0.00 0.00 54 1014.6
20260831053506 85 128 0.0 0.0 0.00 0.00 0.00 54 1014.7
20260831052505 86 128 0.0 0.0 0.00 0.00 0.00 53 1014.5
20260831051511 85 128 0.0 0.0 0.00 0.00 0.00 53 1014.4
20260831050506 85 128 0.0 0.0 0.00 0.00 0.00 53 1014.4
20260831050013 85 128 0.0 0.0 0.00 0.00 0.00 54 1014.3
20260831045505 85 128 0.0 0.0 0.00 0.00 0.00 53 1014.3
20260831045007 86 128 0.0 0.0 0.00 0.00 0.00 52 1014.3
20260831044508 86 128 0.0 0.0 0.00 0.00 0.00 52 1014.3
20260831044005 86 128 0.0 0.0 0.00 0.00 0.00 51 1014.3
20260831043506 87 128 0.0 0.0 0.00 0.00 0.00 51 1014.3
20260831043009 87 128 0.0 0.0 0.00 0.00 0.00 51 1014.3
20260831042005 87 128 0.0 0.0 0.00 0.00 0.00 50 1014.3
20260831041509 88 128 0.0 0.0 0.00 0.00 0.00 49 1014.3
20260831040505 88 128 0.0 0.0 0.00 0.00 0.00 49 1014.2
20260831040012 88 128 0.0 0.0 0.00 0.00 0.00 48 1014.2
20260831035505 89 128 0.0 0.0 0.00 0.00 0.00 48 1014.2
20260831035004 89 128 0.0 0.0 0.00 0.00 0.00 47 1014.3
20260831034004 89 128 0.0 0.0 0.00 0.00 0.00 46 1014.2
20260831033505 90 128 0.0 0.0 0.00 0.00 0.00 45 1014.2
20260831033007 90 128 0.0 1.0 0.00 0.00 0.00 45 1014.1
20260831032504 90 128 0.0 1.0 0.00 0.00 0.00 45 1014.1
20260831032004 90 128 0.0 0.0 0.00 0.00 0.00 45 1014.1
20260831031508 90 128 0.0 2.0 0.00 0.00 0.00 46 1014.0
20260831030504 90 128 0.0 3.0 0.00 0.00 0.00 45 1014.0
20260831030010 90 128 0.0 1.0 0.00 0.00 0.00 46 1013.9
20260831025505 90 128 0.0 1.0 0.00 0.00 0.00 46 1013.8
20260831025004 90 127 0.0 1.0 0.00 0.00 0.00 47 1013.8
20260831024004 90 126 0.0 1.0 0.00 0.00 0.00 47 1013.7
20260831023504 90 127 0.0 0.0 0.00 0.00 0.00 46 1013.7
20260831022504 91 126 0.0 0.0 0.00 0.00 0.00 47 1013.6
20260831022004 91 126 0.0 1.0 0.00 0.00 0.00 47 1013.5
20260831021508 91 127 0.0 1.0 0.00 0.00 0.00 47 1013.5
20260831020010 92 127 0.0 2.0 0.00 0.00 0.00 48 1013.2
20260831015505 92 127 0.0 2.0 0.00 0.00 0.00 47 1013.1
20260831015004 92 127 0.0 2.0 0.00 0.00 0.00 46 1013.0
20260831014509 93 126 0.0 1.0 0.00 0.00 0.00 44 1013.0
20260831014004 93 126 0.0 1.0 0.00 0.00 0.00 42 1012.9
20260831013008 93 127 0.0 3.0 0.00 0.00 0.00 39 1012.8
20260831012005 94 129 0.0 3.0 0.00 0.00 0.00 38 1012.8
20260831011508 94 126 0.0 1.0 0.00 0.00 0.00 37 1012.6
20260831011004 94 125 0.0 1.0 0.00 0.00 0.00 37 1012.7
20260831010504 95 125 0.0 1.0 0.00 0.00 0.00 36 1012.7
20260831010009 95 126 0.0 1.0 0.00 0.00 0.00 36 1012.6
20260831005505 95 126 0.0 3.0 0.00 0.00 0.00 35 1012.6
20260831005004 96 125 0.0 3.0 0.00 0.00 0.00 35 1012.6
20260831004509 96 121 0.0 2.0 0.00 0.00 0.00 35 1012.6
20260831002504 97 129 0.0 3.0 0.00 0.00 0.00 36 1012.7
20260831002004 97 129 1.0 5.0 0.00 0.00 0.00 35 1012.6
20260831001508 98 86 1.0 5.0 0.00 0.00 0.00 35 1012.6
20260831000504 98 115 1.0 7.0 0.00 0.00 0.00 33 1012.7
20260830235504 99 126 1.0 7.0 0.00 0.00 0.00 33 1012.7
20260830235004 99 108 2.0 8.0 0.00 0.00 0.00 33 1012.7
20260830234507 100 86 0.0 4.0 0.00 0.00 0.00 32 1012.7
20260830234004 100 171 1.0 3.0 0.00 0.00 0.00 32 1012.7
20260830233504 100 175 0.0 3.0 0.00 0.00 0.00 32 1012.7
20260830233007 101 175 0.0 1.0 0.00 0.00 0.00 31 1012.8
20260830232504 101 175 0.0 3.0 0.00 0.00 0.00 28 1012.7
20260830231508 101 175 2.0 7.0 0.00 0.00 0.00 28 1012.8
20260830231004 101 171 0.0 7.0 0.00 0.00 0.00 29 1012.7
20260830230504 101 97 0.0 6.0 0.00 0.00 0.00 30 1012.8
20260830230008 101 78 1.0 5.0 0.00 0.00 0.00 30 1012.9
20260830225503 100 107 0.0 5.0 0.00 0.00 0.00 30 1012.9
20260830225004 101 141 0.0 7.0 0.00 0.00 0.00 30 1013.0
20260830224003 101 113 1.0 8.0 0.00 0.00 0.00 29 1013.0
20260830223503 101 123 1.0 8.0 0.00 0.00 0.00 30 1013.0
20260830223006 100 155 1.0 8.0 0.00 0.00 0.00 31 1013.0
20260830222003 101 122 0.0 6.0 0.00 0.00 0.00 30 1013.0
20260830221508 101 199 1.0 11.0 0.00 0.00 0.00 30 1013.0
20260830220504 99 111 2.0 8.0 0.00 0.00 0.00 32 1012.9
20260830220008 99 106 0.0 7.0 0.00 0.00 0.00 32 1013.0
20260830215505 100 113 1.0 7.0 0.00 0.00 0.00 31 1013.0
20260830215004 101 126 1.0 7.0 0.00 0.00 0.00 30 1013.1
20260830214507 101 129 1.0 9.0 0.00 0.00 0.00 30 1013.1
20260830214003 101 102 1.0 11.0 0.00 0.00 0.00 31 1013.2
20260830213503 100 104 1.0 11.0 0.00 0.00 0.00 32 1013.2
20260830213006 100 113 1.0 7.0 0.00 0.00 0.00 32 1013.2
20260830212003 100 159 1.0 7.0 0.00 0.00 0.00 32 1013.3
20260830211507 100 71 1.0 7.0 0.00 0.00 0.00 33 1013.3
20260830211003 99 87 0.0 4.0 0.00 0.00 0.00 34 1013.4
20260830210009 100 92 3.0 9.0 0.00 0.00 0.00 33 1013.5
20260830205503 100 163 1.0 7.0 0.00 0.00 0.00 32 1013.6
20260830205003 100 160 1.0 7.0 0.00 0.00 0.00 32 1013.6
20260830204507 100 149 1.0 7.0 0.00 0.00 0.00 32 1013.7
20260830204004 102 206 1.0 11.0 0.00 0.00 0.00 31 1013.7
20260830203504 102 185 4.0 11.0 0.00 0.00 0.00 31 1013.8
20260830203008 102 207 2.0 8.0 0.00 0.00 0.00 31 1013.8
20260830202503 102 200 3.0 9.0 0.00 0.00 0.00 30 1013.9
20260830202004 103 192 1.0 9.0 0.00 0.00 0.00 30 1014.1
20260830201507 103 198 2.0 10.0 0.00 0.00 0.00 30 1014.1
20260830201003 103 175 1.0 11.0 0.00 0.00 0.00 31 1014.1
20260830200503 103 146 1.0 11.0 0.00 0.00 0.00 31 1014.2
20260830200009 102 73 1.0 9.0 0.00 0.00 0.00 32 1014.2
20260830195503 102 183 2.0 12.0 0.00 0.00 0.00 32 1014.3
20260830195003 102 215 3.0 12.0 0.00 0.00 0.00 32 1014.3
20260830194003 102 190 4.0 10.0 0.00 0.00 0.00 31 1014.5
20260830193503 101 195 3.0 10.0 0.00 0.00 0.00 33 1014.6
20260830193006 101 148 1.0 9.0 0.00 0.00 0.00 32 1014.6
20260830192503 101 117 1.0 15.0 0.00 0.00 0.00 33 1014.7